EHI
13 14 14 15 19 22 22 22 22 22 23 23 22 21 18 15 13 13 12 10 10 11 11 8 8 8 8 10 9 8 7 6 5 4 4 4 6 6 5 6 6 6 6
14 15 16 17 20 22 21 22 22 23 24 25 23 20 18 16 14 12 11 10 10 10 10 10 9 8 9 10 10 9 8 7 6 5 4 4 5 5 4 5 6 7 7
14 16 19 20 22 22 22 22 24 25 25 25 22 19 19 18 16 14 10 9 9 9 9 9 8 7 8 9 9 9 8 7 7 7 5 4 4 4 4 4 5 7 8
12 16 20 22 23 23 23 25 28 28 25 24 22 22 22 21 19 16 12 10 9 7 7 7 7 7 7 7 7 8 8 8 8 8 7 5 4 4 4 3 4 6 6
10 14 18 20 21 21 23 26 30 30 26 24 25 25 23 22 20 17 13 10 9 7 6 6 7 7 7 7 7 8 9 9 9 9 9 7 6 4 3 3 4 4 4
9 11 15 17 18 18 21 25 30 31 26 24 25 25 25 23 22 19 15 11 10 8 7 8 8 9 9 10 11 11 10 9 9 9 8 7 6 5 3 4 4 4 3
9 10 12 16 16 17 21 26 31 31 25 22 23 25 25 24 23 21 17 13 11 10 10 10 11 11 11 12 14 12 10 9 9 8 7 7 6 5 4 4 4 3 3
10 11 13 16 17 18 22 27 30 29 25 22 22 23 24 22 20 19 17 15 13 11 11 12 14 14 13 13 13 11 9 8 8 7 7 6 6 6 6 5 4 2 1
13 15 17 18 16 19 23 27 29 28 26 25 22 22 22 20 18 17 16 15 14 12 13 14 15 15 14 14 13 11 10 9 8 8 7 6 6 6 6 6 4 2 1
14 17 19 18 16 19 24 26 26 26 25 24 22 20 21 19 16 16 15 14 13 13 14 15 15 15 15 16 15 15 13 11 9 8 7 6 5 4 4 5 4 3 2
11 14 16 17 17 19 22 24 24 24 23 22 20 19 20 18 15 15 14 12 11 13 15 15 14 13 14 15 15 16 16 14 10 9 8 7 7 6 6 6 5 4 4
10 13 16 17 16 17 18 21 23 23 22 21 19 19 19 17 16 16 15 13 13 14 15 15 14 12 12 13 14 14 14 14 13 11 11 11 11 11 11 9 7 6 6
14 17 19 18 17 16 15 16 19 20 20 18 17 18 18 16 16 17 16 16 16 15 15 15 14 13 13 13 14 13 12 13 14 13 14 16 15 14 13 10 9 8 7
16 18 19 17 16 14 13 14 15 15 15 15 15 16 16 16 16 16 15 16 16 14 12 12 13 14 14 14 15 14 12 12 14 13 14 15 15 14 11 10 10 9 9
13 14 15 15 14 12 12 13 13 13 12 12 13 14 15 16 17 15 13 14 13 11 8 9 12 15 14 14 14 13 13 15 15 14 12 12 12 10 8 8 8 9 9
10 11 13 13 13 12 13 14 15 14 14 13 13 14 16 18 17 14 11 11 10 8 7 9 13 15 14 12 10 11 14 17 17 15 12 10 8 7 5 3 3 5 6
10 11 12 12 12 13 14 16 16 15 14 15 15 14 15 16 15 12 10 9 9 8 8 10 12 13 11 7 5 7 11 15 17 16 13 10 8 7 6 3 1 2 3
13 12 12 13 14 14 15 17 15 13 12 14 15 14 13 13 12 11 12 12 11 10 9 9 9 10 8 4 2 4 8 11 14 14 12 10 9 8 6 5 4 3 3
15 14 14 16 17 18 18 17 14 11 11 12 14 13 11 10 11 13 14 15 14 12 10 8 8 9 7 3 0 2 7 10 12 12 10 8 8 6 4 5 6 6 5
12 12 13 16 18 19 19 17 13 11 10 11 12 11 9 9 10 12 13 15 15 14 11 9 8 8 6 2 0 2 6 10 12 11 8 5 4 3 2 4 6 7 6
7 8 10 14 16 17 17 14 12 10 9 8 8 9 8 8 8 9 10 12 14 14 12 10 8 6 4 1 0 1 5 9 11 11 7 4 3 2 1 2 3 4 4
6 7 10 12 14 13 12 11 10 9 8 7 6 8 8 8 7 8 8 9 12 12 11 9 6 4 3 1 0 0 2 4 7 8 6 3 1 1 0 0 1 1 1
7 8 9 11 11 10 8 8 8 9 8 7 6 7 8 9 8 8 9 9 10 11 10 8 6 4 3 2 1 0 0 1 4 5 4 1 0 0 0 0 0 0 0
8 8 8 9 9 7 7 7 7 8 8 8 8 7 9 10 10 9 10 9 9 9 9 8 6 4 3 2 1 0 0 0 1 3 2 1 0 0 0 0 0 0 0
7 7 7 7 7 6 7 7 7 7 7 8 7 6 8 9 10 9 8 7 7 6 6 6 5 3 1 1 1 0 0 0 1 2 2 2 1 0 0 0 0 1 1
7 7 7 6 5 6 6 6 6 6 7 6 5 5 6 8 9 9 6 4 3 3 3 3 2 1 0 0 0 0 0 0 0 1 3 3 2 1 0 0 1 2 2
Wind_Speed
7 7 7 8 9 8 9 9 8 7 6 5 5 5 5 4 4 3 4 5 4 5 4 3 3 3 2 2 3 3 3 2 1 2 2 2 2 1 1 1 1 1 1
8 7 7 8 9 9 9 9 8 8 8 6 5 4 4 4 3 3 3 4 4 4 4 3 3 3 2 3 3 3 2 2 2 2 2 2 3 3 2 2 2 1 1
8 8 8 8 8 9 9 7 8 8 8 7 5 4 4 4 4 4 4 4 4 5 4 4 3 3 4 3 3 3 4 3 2 2 3 2 1 1 3 2 1 1 1
7 7 7 8 8 8 8 8 8 8 8 8 7 8 6 5 5 4 3 4 4 4 4 4 4 3 3 3 4 4 3 3 3 2 2 2 2 3 1 3 2 2 2
7 7 7 7 7 7 7 8 8 8 8 8 8 7 6 5 4 4 4 4 4 4 4 5 4 4 3 3 3 3 4 3 3 3 2 2 2 4 4 2 2 2 2
5 5 6 6 6 7 7 7 8 8 8 8 7 7 6 6 5 5 5 4 4 4 5 5 4 4 4 4 4 4 4 3 3 3 3 3 3 3 3 3 3 2 1
5 6 7 7 7 7 7 7 7 8 8 8 7 7 7 7 7 6 6 5 4 4 5 5 5 4 4 4 4 4 4 4 3 4 3 3 3 3 3 3 3 3 2
5 6 6 6 6 6 6 7 7 7 8 8 7 7 7 6 5 6 5 5 4 4 4 5 5 5 5 4 4 4 4 3 4 4 4 3 3 2 3 3 3 3 3
4 5 5 6 6 6 6 6 6 6 7 7 7 7 7 6 5 5 5 4 4 4 4 5 5 5 4 4 4 3 4 4 4 4 4 4 3 3 3 4 4 5 4
4 4 4 5 5 5 5 5 5 6 5 6 6 6 6 6 6 5 5 4 4 3 4 4 5 5 5 5 5 4 4 4 4 3 3 3 3 3 4 4 4 5 5
4 4 4 4 5 4 4 5 5 5 5 5 5 5 5 6 6 5 5 4 4 4 4 4 5 5 5 5 4 4 4 5 4 4 4 4 4 4 4 4 4 4 4
4 4 4 4 4 4 4 4 4 5 5 5 5 5 5 5 5 5 5 5 4 4 4 4 4 5 5 5 5 5 5 5 5 5 4 4 4 5 5 4 5 4 4
4 4 4 4 4 4 4 4 4 4 4 5 5 5 5 5 5 5 5 5 4 4 4 4 4 5 5 5 6 5 5 5 5 5 5 5 5 5 4 5 5 4 4
3 3 3 3 3 3 3 3 3 3 3 4 4 4 5 5 5 5 5 5 4 4 4 4 4 4 5 5 5 5 5 5 5 5 5 5 5 5 5 5 5 5 5
2 2 3 3 3 3 3 2 3 3 3 3 3 3 3 4 4 4 4 4 4 4 4 4 4 4 4 4 4 5 5 5 5 5 5 5 5 4 5 5 5 5 5
2 2 2 3 3 3 3 3 2 2 2 2 2 2 2 3 3 4 4 4 4 4 4 4 4 4 3 1 2 4 5 5 5 5 5 5 5 5 6 6 5 5 6
3 2 2 2 2 2 2 2 2 2 2 2 2 2 2 3 3 3 3 3 3 4 4 4 4 4 3 2 3 4 5 5 5 5 5 5 3 5 5 6 7 7 7
2 2 2 2 2 2 2 3 2 2 2 1 1 2 2 2 3 3 3 3 3 3 3 4 4 4 3 3 4 5 7 5 5 5 5 4 4 3 4 5 5 6 6
1 2 2 2 3 3 3 3 3 2 2 2 2 2 2 2 3 3 3 3 3 3 3 3 4 4 3 3 4 5 6 4 5 5 4 5 4 2 3 5 5 5 4
1 1 2 2 2 3 3 3 3 2 2 2 2 2 3 3 3 3 3 2 3 3 3 3 3 4 3 3 4 6 5 4 4 4 4 3 3 3 4 5 5 5 4
1 2 2 2 2 2 3 3 2 2 2 2 2 2 2 3 3 3 3 3 3 2 2 2 2 3 3 3 4 5 5 4 4 3 3 2 4 3 4 6 5 4 4
2 2 2 2 2 2 3 3 2 2 2 2 2 2 2 3 3 3 3 3 3 3 3 3 3 2 2 1 3 4 5 5 4 3 2 1 4 4 5 5 3 4 5
2 2 2 2 2 2 3 3 2 2 2 2 2 2 2 2 2 3 3 3 3 3 2 2 2 2 2 2 3 5 5 6 4 2 1 2 4 5 5 6 6 6 5
2 2 2 2 2 2 2 2 2 2 2 2 2 2 3 2 2 2 2 2 2 2 2 2 2 2 2 1 1 2 3 4 4 3 2 5 6 6 4 4 6 5 4
2 2 2 3 3 3 2 2 2 2 2 3 3 3 3 2 2 2 1 2 1 1 2 2 2 2 2 1 2 2 2 2 2 2 3 2 2 3 3 3 3 3 3
2 2 3 3 3 3 2 2 2 3 3 3 3 3 2 2 2 2 2 2 1 3 1 1 3 1 1 0 1 1 2 2 2 3 2 2 2 2 3 3 3 3 3
Wind_Direction
191 185 186 186 179 176 180 181 180 172 175 176 184 185 184 185 182 180 176 181 183 175 193 187 170 204 182 179 175 173 163 180 187 193 184 176 181 173 182 211 228 194 190
191 188 189 187 183 179 183 181 183 180 185 181 187 191 183 184 177 183 178 187 182 181 185 197 196 192 186 186 187 189 191 178 202 243 227 204 172 171 176 193 195 207 201
201 194 193 191 184 184 185 183 183 183 188 180 178 172 169 182 180 186 183 190 191 191 197 194 204 193 207 188 197 201 204 201 196 253 274 263 239 186 169 197 201 217 234
201 197 192 190 187 185 183 180 180 182 183 185 188 186 188 190 189 189 179 186 194 193 192 194 192 203 216 193 209 201 213 218 213 204 262 301 318 280 226 191 183 197 229
199 194 188 182 184 183 180 179 178 181 182 190 191 195 197 191 182 181 173 191 185 191 192 191 192 199 212 208 221 199 226 226 236 231 218 231 236 252 261 254 230 210 212
193 186 176 172 176 180 179 177 179 180 183 189 192 197 196 193 186 182 180 193 190 189 187 192 195 204 212 209 214 213 215 232 249 254 235 232 239 237 247 253 250 245 226
190 178 174 173 175 179 179 178 178 181 183 187 193 195 197 194 195 195 191 197 195 191 190 198 200 208 208 210 211 206 217 213 224 241 251 257 258 266 261 256 252 254 239
188 182 171 168 169 174 176 174 176 181 184 189 193 197 199 201 200 202 202 198 204 198 190 197 202 207 206 209 207 214 206 205 216 231 244 257 263 266 257 255 252 247 237
178 177 167 165 166 167 170 174 172 176 184 190 191 195 198 207 204 195 202 203 208 201 194 197 200 204 204 207 208 216 211 209 219 221 221 239 248 249 248 245 246 256 258
149 151 155 155 154 156 161 168 169 174 179 187 192 190 192 199 201 197 196 203 206 205 202 203 205 202 199 203 213 211 209 212 217 225 232 244 242 240 239 244 250 257 264
135 137 137 143 142 145 150 159 166 171 178 182 184 186 185 192 195 195 198 198 202 198 208 213 211 205 205 206 212 218 209 213 218 221 216 225 248 249 245 241 244 247 253
120 127 131 141 147 148 149 156 167 174 176 178 177 179 187 191 192 195 198 197 198 200 203 212 213 208 207 208 211 214 213 213 215 219 219 224 227 234 249 249 247 247 254
120 125 131 138 143 150 155 157 166 173 175 174 173 176 190 193 192 199 197 195 195 204 212 211 218 219 214 210 210 214 215 217 221 225 228 230 233 236 239 245 248 243 237
133 131 134 141 144 147 152 160 157 155 162 167 172 175 187 193 195 198 196 196 197 203 215 219 221 223 222 219 215 215 219 222 228 233 236 237 235 238 240 236 240 245 246
164 151 146 142 146 146 147 141 147 151 160 167 171 178 182 185 188 195 201 201 205 206 211 222 224 221 221 227 232 225 221 225 230 234 238 239 237 247 254 254 241 237 241
196 178 166 160 154 151 152 149 146 153 165 168 176 175 189 195 193 199 204 206 211 214 214 222 224 226 228 166 271 267 242 229 231 236 240 236 223 222 230 244 252 256 247
212 201 186 179 175 170 162 163 159 160 176 180 188 196 204 210 204 207 209 214 218 218 223 226 226 226 219 195 223 253 256 240 237 240 245 251 236 231 237 218 219 232 239
214 212 197 186 185 179 165 156 151 160 178 184 198 211 212 222 209 206 209 217 219 222 230 233 233 227 212 195 223 247 244 241 237 235 237 243 249 255 263 246 233 233 228
238 233 210 193 184 182 171 160 159 173 193 204 215 217 210 223 213 217 218 222 218 220 228 229 228 230 216 197 219 247 242 234 236 233 230 237 235 223 259 250 243 239 238
220 223 204 186 179 181 178 172 171 184 211 226 222 218 212 222 221 218 227 228 225 226 231 233 238 237 235 197 213 241 245 234 234 222 211 205 240 211 224 245 243 240 245
198 202 196 191 185 187 189 188 193 212 231 236 232 215 213 226 226 216 222 226 228 223 227 230 240 240 238 195 202 233 249 247 244 237 230 188 171 206 226 250 254 256 264
199 205 199 190 184 189 202 207 223 234 231 225 223 223 226 234 213 207 215 218 223 217 215 215 233 232 220 210 198 217 240 278 259 254 257 209 170 205 225 235 240 251 251
204 211 202 187 191 204 216 221 230 234 229 227 222 226 238 235 214 215 215 211 215 228 232 224 224 224 216 178 194 209 229 260 270 273 269 251 221 225 225 212 216 230 241
218 213 200 196 208 221 231 233 225 227 224 223 226 233 231 214 195 225 223 226 221 226 238 247 243 236 225 211 204 213 219 234 242 245 203 208 220 231 235 217 215 228 240
229 221 212 208 208 213 228 231 220 217 220 222 224 234 227 205 199 212 232 232 217 271 264 269 261 255 245 264 296 277 263 272 287 275 244 229 214 220 218 225 222 225 229
223 219 218 209 202 201 211 219 215 214 218 225 225 224 221 203 212 201 185 134 169 145 168 297 292 280 7 309 238 257 278 275 252 251 237 236 234 239 239 236 235 238 239